Satellite: PO-28
Catalog number: 22829
Epoch time:      08163.85422792
Element set:    0967
Inclination:      098.3638 deg
RA of node:       126.0933 deg
Eccentricity:    0.0008799
Arg of perigee:   244.1184 deg
Mean anomaly:     115.9097 deg
Mean motion:   14.30190636 rev/day
Decay rate:       -4.4e-07 rev/day^2
Epoch rev:           76736
Checksum:              344

Satellite: GO-32
Catalog number: 25397
Epoch time:      08163.76721333
Element set:     620
Inclination:      098.3631 deg
RA of node:       199.1980 deg
Eccentricity:    0.0000361
Arg of perigee:   219.2151 deg
Mean anomaly:     140.8998 deg
Mean motion:   14.23145043 rev/day
Decay rate:       1.13e-06 rev/day^2
Epoch rev:           51544
Checksum:              287

Satellite: NO-44
Catalog number: 26931
Epoch time:      08163.82848947
Element set:    0902
Inclination:      067.0522 deg
RA of node:       298.4601 deg
Eccentricity:    0.0006735
Arg of perigee:   275.1541 deg
Mean anomaly:     084.8802 deg
Mean motion:   14.29524244 rev/day
Decay rate:      -1.04e-06 rev/day^2
Epoch rev:           34964
Checksum:              315

Satellite: SO-50
Catalog number: 27607
Epoch time:      08163.70493639
Element set:    0626
Inclination:      064.5580 deg
RA of node:       070.2890 deg
Eccentricity:    0.0085670
Arg of perigee:   280.3356 deg
Mean anomaly:     078.8123 deg
Mean motion:   14.71361388 rev/day
Decay rate:       -6.1e-07 rev/day^2
Epoch rev:           29416
Checksum:              319

Satellite: CO-55
Catalog number: 27844
Epoch time:      08163.59079746
Element set:    0326
Inclination:      098.7146 deg
RA of node:       171.9353 deg
Eccentricity:    0.0010553
Arg of perigee:   127.8403 deg
Mean anomaly:     232.3724 deg
Mean motion:   14.20583045 rev/day
Decay rate:        1.9e-07 rev/day^2
Epoch rev:           25664
Checksum:              313

Satellite: CO-57
Catalog number: 27848
Epoch time:      08164.57433217
Element set:     277
Inclination:      098.7154 deg
RA of node:       172.0025 deg
Eccentricity:    0.0010411
Arg of perigee:   129.0912 deg
Mean anomaly:     231.1192 deg
Mean motion:   14.20391678 rev/day
Decay rate:        5.0e-08 rev/day^2
Epoch rev:           25675
Checksum:              292

Satellite: AO-51
Catalog number: 28375
Epoch time:      08163.56177424
Element set:    0123
Inclination:      098.0709 deg
RA of node:       188.4489 deg
Eccentricity:    0.0083477
Arg of perigee:   169.2598 deg
Mean anomaly:     191.0399 deg
Mean motion:   14.40610535 rev/day
Decay rate:        2.0e-07 rev/day^2
Epoch rev:           20759
Checksum:              332

Satellite: CO-56
Catalog number: 28941
Epoch time:      08164.57315436
Element set:     124
Inclination:      098.1068 deg
RA of node:       274.6417 deg
Eccentricity:    0.0166699
Arg of perigee:   058.1614 deg
Mean anomaly:     303.5670 deg
Mean motion:   15.57105706 rev/day
Decay rate:     1.7861e-04 rev/day^2
Epoch rev:           12932
Checksum:              329

Satellite: CP4
Catalog number: 31122
Epoch time:      08163.66106387
Element set:    0361
Inclination:      098.0412 deg
RA of node:       229.4563 deg
Eccentricity:    0.0085494
Arg of perigee:   346.8880 deg
Mean anomaly:     013.0078 deg
Mean motion:   14.55132790 rev/day
Decay rate:       5.50e-06 rev/day^2
Epoch rev:           06127
Checksum:              291

Satellite: CP3
Catalog number: 31128
Epoch time:      08163.68422307
Element set:    0354
Inclination:      098.0388 deg
RA of node:       227.3549 deg
Eccentricity:    0.0102903
Arg of perigee:   352.6427 deg
Mean anomaly:     007.3257 deg
Mean motion:   14.51951441 rev/day
Decay rate:       -4.8e-07 rev/day^2
Epoch rev:           06113
Checksum:              285

/EX
SB KEPS @ AMSAT  $ORB08164.W
Orbital Elements  08164.WEATHER

HR AMSAT ORBITAL ELEMENTS FOR WEATHER SATELLITES
FROM WA5QGD FORT WORTH,TX June 12, 2008
Send Subscribe/unsubscribe to KEPS at 
http://www.amsat.org/mailman/listinfo/keps
BID: ORB08164.W
TO ALL RADIO AMATEURS BT

Satellite: NOAA-10
Catalog number: 16969
Epoch time:      08163.68688791
Element set:    0156
Inclination:      098.7214 deg
RA of node:       185.6681 deg
Eccentricity:    0.0011960
Arg of perigee:   193.6744 deg
Mean anomaly:     166.4115 deg
Mean motion:   14.27360929 rev/day
Decay rate:      -1.07e-06 rev/day^2
Epoch rev:           13065
Checksum:              333

Satellite: NOAA-11
Catalog number: 19531
Epoch time:      08163.79313909
Element set:    0195
Inclination:      098.7978 deg
RA of node:       253.1930 deg
Eccentricity:    0.0012445
Arg of perigee:   084.2506 deg
Mean anomaly:     276.0085 deg
Mean motion:   14.14873067 rev/day
Decay rate:       1.96e-06 rev/day^2
Epoch rev:           01714
Checksum:              315

Satellite: NOAA-12
Catalog number: 21263
Epoch time:      08163.79739776
Element set:    0710
Inclination:      098.7653 deg
RA of node:       165.7496 deg
Eccentricity:    0.0013089
Arg of perigee:   137.8788 deg
Mean anomaly:     222.3371 deg
Mean motion:   14.25534842 rev/day
Decay rate:       -7.0e-07 rev/day^2
Epoch rev:           88762
Checksum:              345

